| time (UTC) | temp F | wind direction | speed knots | gust knots | rain 1hr in | rain 24hr in | rain mn in | humidity % | barometer mb |
| 20260507025908 | 62 | 94 | 2.6 | 7.8 | 0.00 | 0.00 | 0.00 | 34 | 1007.9 |
| 20260507025406 | 63 | 74 | 4.3 | 7.0 | 0.00 | 0.00 | 0.00 | 34 | 1007.8 |
| 20260507024904 | 63 | 101 | 0.9 | 2.6 | 0.00 | 0.00 | 0.00 | 34 | 1007.7 |
| 20260507024401 | 63 | 86 | 0.9 | 1.7 | 0.00 | 0.00 | 0.00 | 33 | 1007.6 |
| 20260507023856 | 64 | 244 | 0.9 | 2.6 | 0.00 | 0.00 | 0.00 | 33 | 1007.4 |
| 20260507023353 | 64 | 104 | 1.7 | 6.1 | 0.00 | 0.00 | 0.00 | 32 | 1007.6 |
| 20260507022851 | 64 | 115 | 1.7 | 5.2 | 0.00 | 0.00 | 0.00 | 32 | 1007.5 |
| 20260507022347 | 65 | 194 | 0.9 | 1.7 | 0.00 | 0.00 | 0.00 | 32 | 1007.3 |
| 20260507021843 | 65 | 122 | 2.6 | 2.6 | 0.00 | 0.00 | 0.00 | 31 | 1007.4 |
| 20260507021338 | 66 | 65 | 0.9 | 1.7 | 0.00 | 0.00 | 0.00 | 31 | 1007.3 |
| 20260507020837 | 66 | 163 | 0.9 | 1.7 | 0.00 | 0.00 | 0.00 | 30 | 1007.1 |
| 20260507020333 | 66 | 268 | 0.9 | 2.6 | 0.00 | 0.00 | 0.00 | 30 | 1006.8 |
| 20260507015830 | 67 | 172 | 0.9 | 0.9 | 0.00 | 0.00 | 0.00 | 31 | 1007.1 |
| 20260507015328 | 67 | 286 | 0.9 | 1.7 | 0.00 | 0.00 | 0.00 | 30 | 1006.9 |
| 20260507014825 | 67 | 44 | 0.0 | 1.7 | 0.00 | 0.00 | 0.00 | 31 | 1006.7 |
| 20260507014321 | 66 | 265 | 0.9 | 2.6 | 0.00 | 0.00 | 0.00 | 31 | 1006.8 |
| 20260507013818 | 67 | 273 | 1.7 | 2.6 | 0.00 | 0.00 | 0.00 | 30 | 1006.9 |
| 20260507013315 | 67 | 346 | 0.9 | 0.9 | 0.00 | 0.00 | 0.00 | 30 | 1006.6 |
| 20260507012807 | 67 | 241 | 0.0 | 1.7 | 0.00 | 0.00 | 0.00 | 31 | 1006.5 |
| 20260507012306 | 67 | 253 | 0.0 | 0.9 | 0.00 | 0.00 | 0.00 | 31 | 1006.7 |
| 20260507011800 | 67 | 326 | 2.6 | 4.3 | 0.00 | 0.00 | 0.00 | 30 | 1006.7 |
| 20260507011257 | 68 | 44 | 0.9 | 2.6 | 0.00 | 0.00 | 0.00 | 31 | 1006.5 |
| 20260507010756 | 69 | 233 | 0.9 | 1.7 | 0.00 | 0.00 | 0.00 | 29 | 1006.5 |
| 20260507010252 | 69 | 247 | 0.0 | 0.9 | 0.00 | 0.00 | 0.00 | 29 | 1006.4 |
| 20260507005750 | 69 | 254 | 0.0 | 1.7 | 0.00 | 0.00 | 0.00 | 29 | 1006.2 |
| 20260507005246 | 69 | 37 | 0.0 | 0.9 | 0.00 | 0.00 | 0.00 | 28 | 1006.4 |
| 20260507004743 | 69 | 289 | 0.9 | 1.7 | 0.00 | 0.00 | 0.00 | 28 | 1006.4 |
| 20260507004241 | 69 | 261 | 0.0 | 0.0 | 0.00 | 0.00 | 0.00 | 28 | 1006.6 |
| 20260507003736 | 69 | 248 | 0.0 | 2.6 | 0.00 | 0.00 | 0.00 | 28 | 1006.3 |
| 20260507003232 | 69 | 223 | 0.0 | 0.9 | 0.00 | 0.00 | 0.00 | 28 | 1006.4 |
| 20260507002728 | 69 | 273 | 0.0 | 0.9 | 0.00 | 0.00 | 0.00 | 28 | 1006.2 |
| 20260507002225 | 69 | 131 | 0.9 | 0.9 | 0.00 | 0.00 | 0.00 | 27 | 1006.2 |
| 20260507001721 | 70 | 211 | 0.9 | 1.7 | 0.00 | 0.00 | 0.00 | 26 | 1006.1 |
| 20260507001218 | 70 | 265 | 0.0 | 1.7 | 0.00 | 0.00 | 0.00 | 27 | 1005.9 |
| 20260507000715 | 70 | 163 | 0.9 | 5.2 | 0.00 | 0.00 | 0.00 | 27 | 1005.8 |
| 20260507000212 | 70 | 271 | 0.9 | 4.3 | 0.00 | 0.00 | 0.00 | 27 | 1005.8 |
| 20260506235708 | 71 | 62 | 0.9 | 1.7 | 0.00 | 0.00 | 0.00 | 26 | 1005.9 |
| 20260506235203 | 71 | 271 | 0.0 | 0.9 | 0.00 | 0.00 | 0.00 | 26 | 1005.6 |
| 20260506234700 | 71 | 127 | 1.7 | 5.2 | 0.00 | 0.00 | 0.00 | 25 | 1005.7 |
| 20260506234157 | 71 | 141 | 0.0 | 1.7 | 0.00 | 0.00 | 0.00 | 26 | 1005.8 |
| 20260506233655 | 72 | 188 | 2.6 | 2.6 | 0.00 | 0.00 | 0.00 | 28 | 1005.9 |
| 20260506233151 | 72 | 271 | 0.0 | 1.7 | 0.00 | 0.00 | 0.00 | 25 | 1005.7 |
| 20260506232647 | 72 | 289 | 0.0 | 2.6 | 0.00 | 0.00 | 0.00 | 25 | 1005.9 |
| 20260506232143 | 73 | 36 | 1.7 | 1.7 | 0.00 | 0.00 | 0.00 | 24 | 1005.9 |
| 20260506231640 | 74 | 272 | 0.0 | 1.7 | 0.00 | 0.00 | 0.00 | 26 | 1005.9 |
| 20260506231139 | 73 | 101 | 0.0 | 1.7 | 0.00 | 0.00 | 0.00 | 25 | 1005.9 |
| 20260506230635 | 73 | 2 | 0.9 | 4.3 | 0.00 | 0.00 | 0.00 | 24 | 1005.7 |
| 20260506230132 | 72 | 341 | 0.9 | 2.6 | 0.00 | 0.00 | 0.00 | 24 | 1005.9 |
| 20260506225629 | 73 | 259 | 0.9 | 1.7 | 0.00 | 0.00 | 0.00 | 25 | 1006.1 |
| 20260506225125 | 72 | 280 | 0.0 | 2.6 | 0.00 | 0.00 | 0.00 | 24 | 1005.9 |
| 20260506224622 | 73 | 243 | 0.9 | 4.3 | 0.00 | 0.00 | 0.00 | 25 | 1006.3 |
| 20260506224118 | 73 | 126 | 0.9 | 2.6 | 0.00 | 0.00 | 0.00 | 24 | 1006.2 |
| 20260506223615 | 75 | 129 | 2.6 | 4.3 | 0.00 | 0.00 | 0.00 | 23 | 1006.3 |
| 20260506223111 | 72 | 281 | 0.9 | 2.6 | 0.00 | 0.00 | 0.00 | 26 | 1006.2 |
| 20260506222608 | 71 | 110 | 2.6 | 2.6 | 0.00 | 0.00 | 0.00 | 25 | 1006.4 |
| 20260506222104 | 72 | 110 | 1.7 | 2.6 | 0.00 | 0.00 | 0.00 | 24 | 1006.4 |
| 20260506221602 | 72 | 280 | 1.7 | 1.7 | 0.00 | 0.00 | 0.00 | 25 | 1006.4 |
| 20260506221100 | 74 | 128 | 0.9 | 1.7 | 0.00 | 0.00 | 0.00 | 24 | 1006.4 |
| 20260506220556 | 73 | 152 | 0.9 | 5.2 | 0.00 | 0.00 | 0.00 | 23 | 1006.5 |
| 20260506220051 | 74 | 75 | 4.3 | 6.1 | 0.00 | 0.00 | 0.00 | 23 | 1006.5 |
| 20260506215548 | 73 | 155 | 0.9 | 2.6 | 0.00 | 0.00 | 0.00 | 28 | 1006.5 |
| 20260506215044 | 73 | 79 | 0.9 | 1.7 | 0.00 | 0.00 | 0.00 | 26 | 1006.4 |
| 20260506214541 | 73 | 96 | 1.7 | 5.2 | 0.00 | 0.00 | 0.00 | 24 | 1006.6 |
| 20260506214038 | 72 | 97 | 4.3 | 7.0 | 0.00 | 0.00 | 0.00 | 24 | 1006.5 |
| 20260506213536 | 72 | 114 | 0.9 | 4.3 | 0.00 | 0.00 | 0.00 | 26 | 1006.7 |
| 20260506213033 | 71 | 56 | 0.9 | 1.7 | 0.00 | 0.00 | 0.00 | 26 | 1006.6 |
| 20260506212530 | 71 | 79 | 4.3 | 5.2 | 0.00 | 0.00 | 0.00 | 24 | 1006.7 |
| 20260506212025 | 71 | 101 | 0.9 | 2.6 | 0.00 | 0.00 | 0.00 | 26 | 1006.7 |
| 20260506211521 | 71 | 168 | 1.7 | 2.6 | 0.00 | 0.00 | 0.00 | 26 | 1006.7 |
| 20260506211019 | 71 | 24 | 0.9 | 2.6 | 0.00 | 0.00 | 0.00 | 26 | 1006.8 |
| 20260506210515 | 72 | 161 | 0.9 | 1.7 | 0.00 | 0.00 | 0.00 | 25 | 1006.9 |
| 20260506210011 | 71 | 299 | 0.0 | 0.0 | 0.00 | 0.00 | 0.00 | 24 | 1006.7 |
| 20260506205508 | 73 | 178 | 0.0 | 0.9 | 0.00 | 0.00 | 0.00 | 25 | 1006.9 |
| 20260506205003 | 73 | 266 | 0.0 | 1.7 | 0.00 | 0.00 | 0.00 | 24 | 1006.9 |
| 20260506204502 | 72 | 143 | 0.9 | 2.6 | 0.00 | 0.00 | 0.00 | 25 | 1006.7 |
| 20260506203959 | 73 | 309 | 1.7 | 5.2 | 0.00 | 0.00 | 0.00 | 25 | 1006.7 |
| 20260506203456 | 75 | 112 | 2.6 | 6.1 | 0.00 | 0.00 | 0.00 | 25 | 1006.9 |
| 20260506202952 | 75 | 246 | 0.9 | 1.7 | 0.00 | 0.00 | 0.00 | 24 | 1006.9 |
| 20260506202450 | 74 | 112 | 1.7 | 2.6 | 0.00 | 0.00 | 0.00 | 24 | 1006.9 |
| 20260506201946 | 73 | 92 | 2.6 | 2.6 | 0.00 | 0.00 | 0.00 | 24 | 1007.1 |
| 20260506201444 | 73 | 287 | 1.7 | 2.6 | 0.00 | 0.00 | 0.00 | 22 | 1007.2 |
| 20260506200940 | 73 | 151 | 2.6 | 2.6 | 0.00 | 0.00 | 0.00 | 23 | 1007.1 |
| 20260506200436 | 74 | 222 | 0.9 | 1.7 | 0.00 | 0.00 | 0.00 | 22 | 1007.2 |
| 20260506195933 | 74 | 75 | 1.7 | 1.7 | 0.00 | 0.00 | 0.00 | 23 | 1007.3 |
| 20260506195430 | 72 | 218 | 0.0 | 1.7 | 0.00 | 0.00 | 0.00 | 26 | 1007.6 |
| 20260506194926 | 72 | 177 | 0.9 | 1.7 | 0.00 | 0.00 | 0.00 | 26 | 1007.6 |
| 20260506194424 | 70 | 76 | 2.6 | 5.2 | 0.00 | 0.00 | 0.00 | 24 | 1007.6 |
| 20260506193921 | 71 | 232 | 0.0 | 4.3 | 0.00 | 0.00 | 0.00 | 25 | 1007.5 |
| 20260506193418 | 69 | 128 | 1.7 | 2.6 | 0.00 | 0.00 | 0.00 | 25 | 1007.6 |
| 20260506192914 | 69 | 95 | 1.7 | 2.6 | 0.00 | 0.00 | 0.00 | 27 | 1007.8 |
| 20260506192411 | 70 | 216 | 1.7 | 1.7 | 0.00 | 0.00 | 0.00 | 27 | 1007.8 |
| 20260506191908 | 69 | 77 | 3.5 | 4.3 | 0.00 | 0.00 | 0.00 | 24 | 1007.7 |
| 20260506191404 | 69 | 296 | 0.0 | 4.3 | 0.00 | 0.00 | 0.00 | 25 | 1008.1 |
| 20260506190901 | 69 | 213 | 0.9 | 1.7 | 0.00 | 0.00 | 0.00 | 25 | 1008.2 |
| 20260506190357 | 69 | 93 | 2.6 | 6.1 | 0.00 | 0.00 | 0.00 | 26 | 1008.1 |
| 20260506185855 | 69 | 110 | 1.7 | 2.6 | 0.00 | 0.00 | 0.00 | 27 | 1008.1 |
| 20260506185352 | 69 | 283 | 0.9 | 1.7 | 0.00 | 0.00 | 0.00 | 24 | 1008.1 |
| 20260506184849 | 69 | 183 | 0.9 | 2.6 | 0.00 | 0.00 | 0.00 | 27 | 1008.5 |
| 20260506184345 | 67 | 261 | 0.0 | 1.7 | 0.00 | 0.00 | 0.00 | 28 | 1008.4 |
| 20260506183843 | 68 | 77 | 3.5 | 6.1 | 0.00 | 0.00 | 0.00 | 27 | 1008.4 |
| 20260506183338 | 67 | 63 | 0.9 | 2.6 | 0.00 | 0.00 | 0.00 | 29 | 1008.3 |
| 20260506182836 | 67 | 79 | 2.6 | 2.6 | 0.00 | 0.00 | 0.00 | 26 | 1008.5 |
| 20260506182333 | 67 | 77 | 3.5 | 4.3 | 0.00 | 0.00 | 0.00 | 27 | 1008.5 |
| 20260506181830 | 67 | 68 | 0.9 | 2.6 | 0.00 | 0.00 | 0.00 | 29 | 1008.5 |
| 20260506181328 | 66 | 128 | 0.9 | 1.7 | 0.00 | 0.00 | 0.00 | 29 | 1009.1 |
| 20260506180825 | 67 | 218 | 0.9 | 4.3 | 0.00 | 0.00 | 0.00 | 31 | 1008.9 |
| 20260506180321 | 66 | 262 | 0.9 | 1.7 | 0.00 | 0.00 | 0.00 | 30 | 1009.1 |
| 20260506175817 | 66 | 91 | 2.6 | 4.3 | 0.00 | 0.00 | 0.00 | 29 | 1009.1 |
| 20260506175314 | 65 | 110 | 1.7 | 2.6 | 0.00 | 0.00 | 0.00 | 30 | 1008.9 |
| 20260506174812 | 64 | 226 | 0.9 | 2.6 | 0.00 | 0.00 | 0.00 | 35 | 1009.2 |
| 20260506174309 | 64 | 74 | 1.7 | 1.7 | 0.00 | 0.00 | 0.00 | 31 | 1009.4 |
| 20260506173806 | 62 | 71 | 2.6 | 5.2 | 0.00 | 0.00 | 0.00 | 32 | 1009.3 |
| 20260506173303 | 62 | 187 | 1.7 | 1.7 | 0.00 | 0.00 | 0.00 | 35 | 1009.5 |
| 20260506172800 | 64 | 91 | 2.6 | 4.3 | 0.00 | 0.00 | 0.00 | 32 | 1009.4 |
| 20260506172256 | 63 | 147 | 0.9 | 4.3 | 0.00 | 0.00 | 0.00 | 33 | 1009.4 |
| 20260506171754 | 61 | 107 | 0.9 | 1.7 | 0.00 | 0.00 | 0.00 | 34 | 1009.7 |
| 20260506171251 | 61 | 127 | 0.9 | 5.2 | 0.00 | 0.00 | 0.00 | 34 | 1009.8 |
| 20260506170749 | 62 | 155 | 0.9 | 2.6 | 0.00 | 0.00 | 0.00 | 35 | 1009.8 |
| 20260506170245 | 62 | 142 | 0.9 | 1.7 | 0.00 | 0.00 | 0.00 | 36 | 1009.9 |
| 20260506165743 | 61 | 251 | 0.9 | 0.9 | 0.00 | 0.00 | 0.00 | 33 | 1009.8 |
| 20260506165240 | 60 | 225 | 0.0 | 1.7 | 0.00 | 0.00 | 0.00 | 36 | 1009.8 |
| 20260506164737 | 59 | 190 | 0.9 | 2.6 | 0.00 | 0.00 | 0.00 | 38 | 1010.1 |
| 20260506164234 | 60 | 263 | 0.9 | 1.7 | 0.00 | 0.00 | 0.00 | 33 | 1010.1 |
| 20260506163731 | 59 | 150 | 0.9 | 1.7 | 0.00 | 0.00 | 0.00 | 36 | 1010.3 |
| 20260506163226 | 58 | 260 | 1.7 | 1.7 | 0.00 | 0.00 | 0.00 | 35 | 1010.3 |
| 20260506162722 | 58 | 108 | 1.7 | 1.7 | 0.00 | 0.00 | 0.00 | 36 | 1010.4 |
| 20260506162220 | 59 | 43 | 0.9 | 1.7 | 0.00 | 0.00 | 0.00 | 34 | 1010.4 |
| 20260506161717 | 57 | 164 | 0.9 | 0.9 | 0.00 | 0.00 | 0.00 | 37 | 1010.6 |
| 20260506161214 | 57 | 261 | 0.0 | 1.7 | 0.00 | 0.00 | 0.00 | 37 | 1010.5 |
| 20260506160712 | 55 | 78 | 0.0 | 0.9 | 0.00 | 0.00 | 0.00 | 39 | 1010.4 |
| 20260506160208 | 55 | 62 | 0.0 | 1.7 | 0.00 | 0.00 | 0.00 | 39 | 1010.6 |
| 20260506155707 | 55 | 61 | 0.9 | 1.7 | 0.00 | 0.00 | 0.00 | 39 | 1010.8 |
| 20260506155203 | 54 | 68 | 0.0 | 1.7 | 0.00 | 0.00 | 0.00 | 40 | 1010.8 |
| 20260506153305 | 52 | 81 | 0.9 | 1.7 | 0.00 | 0.00 | 0.00 | 41 | 1011.3 |
| 20260506152802 | 51 | 251 | 1.7 | 1.7 | 0.00 | 0.00 | 0.00 | 42 | 1011.2 |
| 20260506152259 | 52 | 317 | 0.0 | 0.9 | 0.00 | 0.00 | 0.00 | 40 | 1011.2 |
| 20260506151758 | 50 | 234 | 0.0 | 0.9 | 0.00 | 0.00 | 0.00 | 41 | 1011.4 |
| 20260506151254 | 50 | 209 | 0.0 | 0.0 | 0.00 | 0.00 | 0.00 | 43 | 1011.5 |
| 20260506150751 | 49 | 245 | 0.9 | 0.9 | 0.00 | 0.00 | 0.00 | 43 | 1011.5 |
| 20260506150248 | 49 | 276 | 0.0 | 0.0 | 0.00 | 0.00 | 0.00 | 43 | 1011.5 |
| 20260506145745 | 48 | 288 | 0.9 | 0.9 | 0.00 | 0.00 | 0.00 | 43 | 1011.6 |
| 20260506145241 | 47 | 262 | 0.0 | 0.0 | 0.00 | 0.00 | 0.00 | 46 | 1011.4 |
| 20260506144739 | 46 | 316 | 0.0 | 0.9 | 0.00 | 0.00 | 0.00 | 46 | 1011.6 |
| 20260506144236 | 46 | 283 | 0.0 | 0.9 | 0.00 | 0.00 | 0.00 | 47 | 1011.7 |
| 20260506143733 | 45 | 302 | 0.0 | 0.9 | 0.00 | 0.00 | 0.00 | 48 | 1012.1 |
| 20260506143231 | 45 | 281 | 0.0 | 0.9 | 0.00 | 0.00 | 0.00 | 48 | 1011.8 |
| 20260506142729 | 44 | 287 | 0.0 | 0.9 | 0.00 | 0.00 | 0.00 | 48 | 1011.8 |
| 20260506142227 | 43 | 268 | 0.0 | 0.9 | 0.00 | 0.00 | 0.00 | 49 | 1011.9 |
| 20260506141725 | 42 | 287 | 0.0 | 0.9 | 0.00 | 0.00 | 0.00 | 50 | 1012.1 |
| 20260506141223 | 42 | 271 | 0.0 | 0.9 | 0.00 | 0.00 | 0.00 | 50 | 1012.3 |
| 20260506140720 | 41 | 283 | 0.0 | 0.9 | 0.00 | 0.00 | 0.00 | 51 | 1012.2 |
| 20260506140217 | 41 | 298 | 0.0 | 0.9 | 0.00 | 0.00 | 0.00 | 53 | 1012.1 |
| 20260506135714 | 40 | 249 | 0.0 | 0.9 | 0.00 | 0.00 | 0.00 | 53 | 1012.2 |
| 20260506135210 | 39 | 311 | 0.0 | 1.7 | 0.00 | 0.00 | 0.00 | 54 | 1012.2 |
| 20260506134707 | 39 | 354 | 0.0 | 0.9 | 0.00 | 0.00 | 0.00 | 53 | 1012.3 |
| 20260506134203 | 39 | 274 | 0.0 | 0.0 | 0.00 | 0.00 | 0.00 | 55 | 1012.3 |
| 20260506133701 | 38 | 268 | 0.0 | 0.0 | 0.00 | 0.00 | 0.00 | 55 | 1012.4 |
| 20260506133157 | 38 | 280 | 0.0 | 0.9 | 0.00 | 0.00 | 0.00 | 56 | 1012.4 |
| 20260506132654 | 38 | 290 | 0.0 | 0.9 | 0.00 | 0.00 | 0.00 | 57 | 1012.6 |
| 20260506132151 | 36 | 270 | 0.0 | 0.0 | 0.00 | 0.00 | 0.00 | 60 | 1012.5 |
| 20260506131649 | 36 | 278 | 0.0 | 0.0 | 0.00 | 0.00 | 0.00 | 59 | 1012.6 |
| 20260506131145 | 36 | 289 | 0.0 | 0.0 | 0.00 | 0.00 | 0.00 | 58 | 1012.3 |
| 20260506130642 | 37 | 279 | 0.0 | 0.0 | 0.00 | 0.00 | 0.00 | 57 | 1012.4 |
| 20260506130139 | 35 | 279 | 0.0 | 0.0 | 0.00 | 0.00 | 0.00 | 61 | 1012.3 |
| 20260506125637 | 32 | 277 | 0.0 | 0.0 | 0.00 | 0.00 | 0.00 | 65 | 1012.7 |
| 20260506125134 | 32 | 278 | 0.0 | 0.0 | 0.00 | 0.00 | 0.00 | 64 | 1012.4 |
| 20260506124632 | 32 | 285 | 0.0 | 0.0 | 0.00 | 0.00 | 0.00 | 64 | 1012.6 |
| 20260506124130 | 31 | 279 | 0.0 | 0.0 | 0.00 | 0.00 | 0.00 | 65 | 1012.6 |
| 20260506123627 | 30 | 282 | 0.0 | 0.0 | 0.00 | 0.00 | 0.00 | 67 | 1012.6 |
| 20260506123126 | 29 | 285 | 0.0 | 0.0 | 0.00 | 0.00 | 0.00 | 68 | 1012.5 |
| 20260506122622 | 29 | 282 | 0.0 | 0.0 | 0.00 | 0.00 | 0.00 | 69 | 1012.5 |
| 20260506122120 | 29 | 283 | 0.0 | 0.0 | 0.00 | 0.00 | 0.00 | 69 | 1012.5 |
| 20260506121617 | 29 | 280 | 0.0 | 0.0 | 0.00 | 0.00 | 0.00 | 69 | 1012.5 |
| 20260506121114 | 29 | 279 | 0.0 | 0.0 | 0.00 | 0.00 | 0.00 | 69 | 1012.7 |
| 20260506120612 | 29 | 281 | 0.0 | 0.0 | 0.00 | 0.00 | 0.00 | 70 | 1012.8 |
| 20260506120109 | 29 | 281 | 0.0 | 0.0 | 0.00 | 0.00 | 0.00 | 70 | 1012.6 |
| 20260506115607 | 29 | 281 | 0.0 | 0.0 | 0.00 | 0.00 | 0.00 | 71 | 1012.7 |
| 20260506115105 | 29 | 281 | 0.0 | 0.0 | 0.00 | 0.00 | 0.00 | 71 | 1012.8 |
| 20260506114602 | 29 | 283 | 0.0 | 0.0 | 0.00 | 0.00 | 0.00 | 70 | 1012.8 |
| 20260506114100 | 29 | 292 | 0.0 | 0.0 | 0.00 | 0.00 | 0.00 | 70 | 1013.0 |
| 20260506113558 | 29 | 279 | 0.0 | 0.0 | 0.00 | 0.00 | 0.00 | 70 | 1013.2 |
| 20260506113055 | 29 | 275 | 0.0 | 0.0 | 0.00 | 0.00 | 0.00 | 70 | 1013.1 |
| 20260506112551 | 29 | 266 | 0.0 | 0.0 | 0.00 | 0.00 | 0.00 | 70 | 1013.2 |
| 20260506112049 | 29 | 282 | 0.0 | 0.0 | 0.00 | 0.00 | 0.00 | 69 | 1013.2 |
| 20260506111546 | 29 | 281 | 0.0 | 0.0 | 0.00 | 0.00 | 0.00 | 69 | 1013.2 |
| 20260506111043 | 29 | 281 | 0.0 | 0.0 | 0.00 | 0.00 | 0.00 | 69 | 1013.3 |
| 20260506110541 | 30 | 280 | 0.0 | 0.0 | 0.00 | 0.00 | 0.00 | 68 | 1013.4 |
| 20260506110038 | 30 | 278 | 0.0 | 0.0 | 0.00 | 0.00 | 0.00 | 68 | 1013.4 |
| 20260506105534 | 30 | 286 | 0.0 | 0.0 | 0.00 | 0.00 | 0.00 | 67 | 1013.5 |
| 20260506105032 | 30 | 285 | 0.0 | 0.0 | 0.00 | 0.00 | 0.00 | 66 | 1013.4 |
| 20260506104529 | 30 | 289 | 0.0 | 0.0 | 0.00 | 0.00 | 0.00 | 66 | 1013.5 |
| 20260506104027 | 30 | 285 | 0.0 | 0.0 | 0.00 | 0.00 | 0.00 | 66 | 1013.4 |
| 20260506103524 | 30 | 284 | 0.0 | 0.0 | 0.00 | 0.00 | 0.00 | 65 | 1013.7 |
| 20260506103021 | 30 | 284 | 0.0 | 0.0 | 0.00 | 0.00 | 0.00 | 65 | 1013.7 |
| 20260506102520 | 30 | 286 | 0.0 | 0.0 | 0.00 | 0.00 | 0.00 | 65 | 1013.7 |
| 20260506102017 | 31 | 286 | 0.0 | 0.0 | 0.00 | 0.00 | 0.00 | 64 | 1013.8 |
| 20260506101513 | 31 | 287 | 0.0 | 0.0 | 0.00 | 0.00 | 0.00 | 63 | 1013.8 |
| 20260506101010 | 32 | 295 | 0.0 | 0.0 | 0.00 | 0.00 | 0.00 | 61 | 1014.1 |
| 20260506100509 | 32 | 289 | 0.0 | 0.0 | 0.00 | 0.00 | 0.00 | 60 | 1014.1 |
| 20260506100007 | 32 | 280 | 0.0 | 0.0 | 0.00 | 0.00 | 0.00 | 59 | 1014.2 |
| 20260506095505 | 32 | 292 | 0.0 | 0.0 | 0.00 | 0.00 | 0.00 | 60 | 1014.2 |
| 20260506095000 | 32 | 308 | 0.0 | 0.0 | 0.00 | 0.00 | 0.00 | 60 | 1014.4 |
| 20260506094459 | 32 | 267 | 0.0 | 0.9 | 0.00 | 0.00 | 0.00 | 59 | 1014.5 |
| 20260506093956 | 33 | 294 | 0.0 | 0.0 | 0.00 | 0.00 | 0.00 | 58 | 1014.5 |
| 20260506093454 | 33 | 272 | 0.0 | 0.9 | 0.00 | 0.00 | 0.00 | 58 | 1014.6 |
| 20260506092952 | 33 | 256 | 0.0 | 0.0 | 0.00 | 0.00 | 0.00 | 58 | 1014.7 |
| 20260506092449 | 33 | 295 | 0.0 | 0.0 | 0.00 | 0.00 | 0.00 | 58 | 1014.7 |
| 20260506091945 | 33 | 161 | 0.0 | 0.0 | 0.00 | 0.00 | 0.00 | 57 | 1014.7 |
| 20260506091444 | 33 | 287 | 0.0 | 0.0 | 0.00 | 0.00 | 0.00 | 56 | 1014.8 |
| 20260506090941 | 33 | 245 | 0.0 | 0.0 | 0.00 | 0.00 | 0.00 | 56 | 1015.1 |
| 20260506090439 | 33 | 290 | 0.0 | 1.7 | 0.00 | 0.00 | 0.00 | 56 | 1015.0 |
| 20260506085935 | 33 | 286 | 0.0 | 0.0 | 0.00 | 0.00 | 0.00 | 56 | 1015.1 |
| 20260506085432 | 34 | 245 | 0.0 | 0.9 | 0.00 | 0.00 | 0.00 | 55 | 1014.8 |
| 20260506084928 | 34 | 283 | 0.0 | 0.9 | 0.00 | 0.00 | 0.00 | 54 | 1015.2 |
| 20260506084425 | 34 | 301 | 0.0 | 0.9 | 0.00 | 0.00 | 0.00 | 54 | 1015.4 |
| 20260506083916 | 33 | 270 | 0.0 | 0.9 | 0.00 | 0.00 | 0.00 | 55 | 1015.3 |
| 20260506083413 | 33 | 271 | 0.0 | 0.9 | 0.00 | 0.00 | 0.00 | 56 | 1015.6 |
| 20260506082911 | 33 | 280 | 0.0 | 0.0 | 0.00 | 0.00 | 0.00 | 56 | 1015.3 |
| 20260506082407 | 34 | 289 | 0.0 | 0.9 | 0.00 | 0.00 | 0.00 | 55 | 1015.4 |
| 20260506081903 | 34 | 302 | 0.0 | 0.0 | 0.00 | 0.00 | 0.00 | 56 | 1015.6 |
| 20260506081402 | 34 | 291 | 0.0 | 0.0 | 0.00 | 0.00 | 0.00 | 55 | 1015.8 |
| 20260506080859 | 34 | 269 | 0.0 | 0.9 | 0.00 | 0.00 | 0.00 | 55 | 1015.4 |
| 20260506080355 | 34 | 271 | 0.0 | 0.0 | 0.00 | 0.00 | 0.00 | 56 | 1015.8 |
| 20260506073339 | 35 | 279 | 0.0 | 0.0 | 0.00 | 0.00 | 0.00 | 54 | 1016.2 |
| 20260506072836 | 35 | 286 | 0.0 | 0.9 | 0.00 | 0.00 | 0.00 | 52 | 1016.2 |
| 20260506072334 | 35 | 280 | 0.0 | 0.9 | 0.00 | 0.00 | 0.00 | 52 | 1016.2 |
| 20260506071831 | 35 | 276 | 0.0 | 0.0 | 0.00 | 0.00 | 0.00 | 53 | 1016.3 |
| 20260506071330 | 35 | 265 | 0.0 | 0.9 | 0.00 | 0.00 | 0.00 | 51 | 1016.2 |
| 20260506070826 | 35 | 217 | 0.9 | 1.7 | 0.00 | 0.00 | 0.00 | 52 | 1016.6 |
| 20260506070323 | 35 | 306 | 0.0 | 0.9 | 0.00 | 0.00 | 0.00 | 52 | 1016.4 |
| 20260506062300 | 36 | 267 | 0.0 | 0.0 | 0.00 | 0.00 | 0.00 | 52 | 1017.2 |
| 20260506061756 | 36 | 217 | 0.0 | 0.9 | 0.00 | 0.00 | 0.00 | 51 | 1016.8 |
| 20260506061253 | 36 | 276 | 0.0 | 0.0 | 0.00 | 0.00 | 0.00 | 51 | 1017.2 |
| 20260506060751 | 36 | 65 | 0.9 | 0.9 | 0.00 | 0.00 | 0.00 | 50 | 1017.3 |
| 20260506060249 | 36 | 273 | 0.0 | 0.9 | 0.00 | 0.00 | 0.00 | 49 | 1017.3 |
| 20260506051220 | 38 | 49 | 0.0 | 1.7 | 0.00 | 0.00 | 0.00 | 47 | 1017.5 |
| 20260506050718 | 39 | 48 | 0.0 | 0.9 | 0.00 | 0.00 | 0.00 | 48 | 1017.7 |
| 20260506050215 | 38 | 225 | 0.9 | 0.9 | 0.00 | 0.00 | 0.00 | 48 | 1017.7 |
| 20260506044706 | 39 | 289 | 0.0 | 0.9 | 0.00 | 0.00 | 0.00 | 47 | 1017.7 |
| 20260506044202 | 39 | 298 | 0.0 | 0.0 | 0.00 | 0.00 | 0.00 | 47 | 1017.7 |
| 20260506043700 | 39 | 283 | 0.0 | 0.0 | 0.00 | 0.00 | 0.00 | 47 | 1017.7 |
| 20260506043158 | 40 | 284 | 0.0 | 0.0 | 0.00 | 0.00 | 0.00 | 48 | 1018.0 |
| 20260506042657 | 40 | 285 | 0.0 | 0.0 | 0.00 | 0.00 | 0.00 | 48 | 1017.8 |
| 20260506042154 | 40 | 280 | 0.0 | 0.0 | 0.00 | 0.00 | 0.00 | 47 | 1017.8 |
| 20260506041653 | 40 | 285 | 0.0 | 0.0 | 0.00 | 0.00 | 0.00 | 47 | 1018.0 |
| 20260506041149 | 40 | 285 | 0.0 | 0.0 | 0.00 | 0.00 | 0.00 | 46 | 1017.8 |
| 20260506040647 | 40 | 278 | 0.0 | 0.0 | 0.00 | 0.00 | 0.00 | 46 | 1017.7 |
| 20260506040143 | 41 | 288 | 0.0 | 0.0 | 0.00 | 0.00 | 0.00 | 45 | 1017.8 |
| 20260506035641 | 41 | 284 | 0.0 | 0.9 | 0.00 | 0.00 | 0.00 | 44 | 1017.8 |
| 20260506035137 | 41 | 240 | 0.0 | 0.0 | 0.00 | 0.00 | 0.00 | 45 | 1018.0 |
| 20260506034634 | 41 | 319 | 0.0 | 0.0 | 0.00 | 0.00 | 0.00 | 45 | 1018.0 |
| 20260506034131 | 42 | 274 | 0.0 | 0.0 | 0.00 | 0.00 | 0.00 | 45 | 1018.0 |
| 20260506033628 | 42 | 194 | 0.9 | 0.9 | 0.00 | 0.00 | 0.00 | 43 | 1017.8 |
| 20260506033125 | 43 | 278 | 0.0 | 0.0 | 0.00 | 0.00 | 0.00 | 42 | 1017.8 |
| 20260506032623 | 43 | 267 | 0.0 | 0.0 | 0.00 | 0.00 | 0.00 | 42 | 1017.7 |
| 20260506032119 | 44 | 325 | 0.0 | 0.0 | 0.00 | 0.00 | 0.00 | 41 | 1017.8 |
| 20260506031616 | 44 | 118 | 0.0 | 0.9 | 0.00 | 0.00 | 0.00 | 39 | 1017.7 |
| 20260506031113 | 45 | 63 | 0.0 | 1.7 | 0.00 | 0.00 | 0.00 | 38 | 1017.6 |
| 20260506030612 | 45 | 93 | 0.9 | 4.3 | 0.00 | 0.00 | 0.00 | 37 | 1017.7 |